Temp
19 19 18 17 16 15 15 15 14 14 14 14 14 14 13 13 13 13 13 12 12 11 11 12 13 13 13 13 13 13 12 12 12 12 12 13 13 13 13 12 13 12 12
20 19 18 16 15 16 15 15 14 14 14 13 13 13 12 12 12 12 12 12 12 12 12 11 12 12 13 13 13 13 12 11 11 12 13 13 13 13 12 12 13 13 12
20 20 18 16 16 16 15 15 14 14 14 13 13 11 12 12 12 11 12 11 11 12 12 13 12 12 12 12 12 12 11 11 12 12 14 13 12 13 12 12 13 13 13
20 20 19 16 16 15 15 15 15 14 14 14 12 11 12 12 12 11 11 11 11 12 12 13 13 13 13 13 13 12 11 11 13 13 14 13 13 13 12 11 12 13 13
20 19 19 17 16 15 15 14 15 15 14 14 13 12 13 12 13 13 12 12 12 13 13 14 14 14 14 14 14 13 13 13 14 13 14 14 14 12 12 12 13 13 14
20 20 19 18 17 16 15 15 15 15 14 14 14 12 12 13 13 14 13 12 12 13 14 15 15 15 15 14 14 13 13 13 14 14 14 13 13 13 13 12 15 14 14
20 19 19 19 18 16 15 15 15 15 15 14 14 13 13 13 13 14 13 13 13 14 14 15 15 14 14 14 14 14 15 15 15 15 14 14 13 13 12 12 13 14 15
19 19 19 19 18 17 16 16 15 15 14 14 14 13 13 13 13 14 13 14 14 14 14 14 14 14 14 14 15 15 15 14 15 15 15 15 15 13 12 11 13 14 14
19 19 19 19 18 17 18 17 16 15 15 14 14 15 15 14 13 14 14 14 14 14 14 14 14 14 14 15 15 15 14 14 14 14 15 15 14 14 14 11 12 14 14
18 19 18 18 18 18 18 17 16 16 15 15 15 15 15 15 14 14 15 14 14 14 14 14 14 14 14 14 14 14 14 14 14 14 14 14 14 14 13 12 11 12 13
18 19 18 18 18 18 17 17 16 16 16 15 16 15 15 14 14 14 14 14 14 14 14 14 14 14 13 13 13 13 13 13 13 13 13 13 13 13 12 12 13 12 13
20 19 18 17 17 17 16 16 16 16 15 15 15 15 14 14 14 14 14 13 13 13 14 13 13 13 13 13 13 13 13 13 12 12 12 12 12 12 12 12 12 12 12
21 20 19 17 16 17 16 16 16 15 15 15 14 14 14 13 13 13 13 13 13 13 13 13 13 13 13 13 13 13 13 12 12 12 12 12 12 12 12 12 12 12 12
21 20 19 18 16 16 15 15 15 15 14 14 14 14 13 13 13 13 12 12 12 13 14 13 13 12 12 12 13 12 12 12 12 12 12 12 12 12 12 12 12 12 12
21 20 19 18 17 16 15 15 15 15 14 14 14 13 13 13 12 12 12 13 13 13 13 13 13 12 12 12 12 12 12 12 12 12 12 12 12 12 12 12 12 12 12
20 20 19 18 17 16 15 15 15 14 14 14 13 13 13 13 12 12 12 13 13 12 12 12 12 12 12 12 12 12 12 12 11 11 11 11 11 11 11 12 12 11 11
19 19 18 17 17 16 15 14 14 14 14 13 13 13 12 12 12 12 12 12 12 11 12 12 12 12 12 12 12 12 12 11 11 11 11 11 11 11 11 12 12 12 11
18 18 17 17 16 15 15 14 14 14 13 13 13 12 12 12 12 11 11 12 12 12 12 12 12 12 11 11 11 11 11 11 10 10 10 10 10 11 11 11 11 11 11
18 18 18 17 16 15 14 14 14 13 12 12 12 12 12 11 12 12 12 12 12 12 12 11 11 10 10 10 10 10 10 10 9 10 10 10 10 10 11 11 10 11 10
16 17 17 17 15 15 14 14 13 13 12 11 12 12 12 12 12 12 12 12 11 11 11 10 10 9 8 8 8 9 10 9 10 9 9 10 10 10 10 10 10 11 11
15 15 15 15 14 14 14 13 13 12 12 12 12 12 12 12 12 12 11 11 11 10 9 9 8 8 8 8 8 9 9 9 9 8 9 9 9 9 8 9 9 9 9
14 14 14 14 14 14 13 13 13 12 12 12 12 12 12 11 11 11 11 10 10 9 8 8 7 7 7 6 5 6 5 7 7 6 7 7 7 6 7 7 6 6 5
14 13 13 13 13 13 13 13 12 12 12 12 12 12 11 11 11 10 10 10 9 8 8 7 7 6 6 6 5 4 3 3 2 5 5 5 5 4 4 4 4 3 3
13 13 13 13 13 13 13 13 13 14 13 12 12 11 11 11 10 10 9 9 8 8 7 7 6 6 5 5 5 4 3 2 1 1 3 4 3 3 2 2 2 1 2
13 13 13 13 13 13 13 13 13 12 12 12 11 11 11 10 9 9 9 8 8 7 6 6 6 6 5 4 3 3 2 2 1 0 -0 -0 -0 0 1 0 0 0 -0
12 12 12 13 12 12 12 12 12 12 12 11 10 10 9 9 8 8 8 7 7 6 6 6 5 5 4 4 3 2 1 0 0 -0 -1 -1 -1 -1 -1 -1 -1 -1 -1
Height
1509 1509 1509 1511 1513 1515 1515 1516 1516 1516 1515 1515 1514 1514 1515 1515 1516 1517 1516 1516 1515 1514 1514 1514 1513 1514 1514 1515 1515 1516 1516 1515 1514 1513 1512 1512 1511 1512 1512 1512 1511 1512 1512
1507 1508 1508 1510 1511 1513 1514 1515 1516 1515 1515 1514 1513 1513 1514 1515 1516 1516 1516 1516 1514 1514 1513 1513 1514 1514 1514 1514 1514 1515 1514 1512 1511 1511 1510 1510 1510 1511 1511 1511 1512 1511 1512
1507 1507 1508 1509 1511 1512 1513 1513 1514 1514 1513 1513 1513 1513 1515 1515 1515 1515 1515 1515 1514 1514 1513 1512 1512 1512 1513 1513 1513 1514 1513 1511 1510 1509 1509 1509 1509 1508 1509 1509 1510 1510 1510
1506 1506 1507 1507 1509 1511 1512 1512 1512 1512 1512 1512 1512 1514 1514 1515 1516 1515 1515 1515 1514 1514 1513 1512 1512 1511 1511 1512 1511 1511 1511 1509 1508 1508 1508 1508 1507 1506 1506 1507 1507 1507 1508
1506 1507 1507 1507 1509 1509 1511 1511 1511 1511 1511 1510 1511 1513 1514 1515 1515 1516 1516 1515 1514 1513 1512 1511 1511 1511 1510 1510 1509 1509 1509 1508 1507 1507 1506 1506 1505 1506 1505 1505 1504 1505 1506
1506 1507 1507 1508 1508 1508 1510 1510 1510 1510 1510 1510 1510 1511 1512 1513 1514 1515 1515 1514 1514 1513 1512 1511 1511 1510 1510 1509 1508 1507 1507 1506 1505 1505 1505 1505 1503 1504 1504 1503 1502 1503 1503
1505 1507 1507 1507 1508 1509 1509 1509 1509 1510 1510 1510 1510 1510 1511 1512 1513 1514 1514 1514 1514 1513 1512 1511 1510 1510 1509 1508 1507 1507 1506 1506 1505 1504 1503 1503 1501 1501 1502 1502 1501 1500 1501
1505 1506 1507 1507 1507 1509 1508 1508 1508 1509 1510 1510 1510 1510 1511 1512 1512 1513 1514 1514 1513 1512 1511 1511 1511 1510 1509 1508 1507 1506 1505 1505 1504 1503 1502 1501 1500 1500 1500 1499 1498 1498 1498
1505 1506 1506 1506 1506 1508 1507 1507 1508 1509 1509 1510 1510 1510 1510 1511 1512 1512 1513 1513 1513 1512 1512 1511 1510 1509 1509 1508 1507 1506 1505 1504 1503 1502 1501 1500 1499 1498 1497 1497 1497 1495 1495
1504 1504 1506 1505 1507 1507 1507 1507 1507 1508 1509 1510 1509 1510 1509 1511 1512 1512 1512 1513 1513 1512 1511 1511 1510 1509 1508 1507 1506 1505 1504 1503 1502 1500 1500 1499 1498 1496 1495 1494 1494 1493 1492
1501 1501 1503 1504 1506 1505 1506 1506 1507 1508 1509 1509 1509 1509 1510 1510 1511 1511 1511 1511 1511 1511 1511 1510 1509 1508 1507 1506 1505 1504 1502 1501 1499 1498 1497 1496 1494 1493 1492 1492 1491 1490 1489
1498 1499 1500 1502 1504 1503 1504 1505 1506 1507 1508 1509 1510 1510 1510 1510 1510 1511 1510 1511 1511 1510 1509 1509 1508 1506 1505 1504 1503 1501 1500 1499 1497 1496 1494 1493 1492 1490 1489 1488 1486 1485 1484
1495 1496 1498 1499 1501 1501 1503 1504 1505 1507 1508 1508 1509 1509 1509 1509 1511 1511 1511 1510 1510 1509 1507 1507 1506 1505 1503 1502 1500 1499 1497 1496 1494 1492 1491 1489 1488 1487 1485 1483 1482 1480 1478
1492 1493 1495 1497 1500 1501 1502 1503 1503 1504 1506 1507 1508 1508 1509 1509 1510 1510 1509 1508 1508 1507 1506 1505 1504 1503 1501 1499 1498 1496 1495 1493 1491 1490 1488 1487 1486 1484 1481 1479 1477 1476 1474
1489 1490 1491 1494 1497 1499 1500 1501 1502 1504 1506 1507 1507 1508 1508 1508 1509 1508 1508 1507 1507 1505 1504 1502 1500 1499 1497 1495 1494 1492 1490 1488 1487 1485 1484 1482 1480 1478 1476 1474 1472 1470 1469
1486 1487 1489 1491 1494 1495 1497 1499 1502 1503 1505 1506 1507 1507 1506 1507 1507 1507 1506 1505 1504 1502 1501 1499 1497 1495 1493 1491 1490 1488 1485 1484 1482 1480 1478 1475 1472 1471 1470 1468 1467 1465 1464
1483 1485 1486 1488 1490 1491 1495 1498 1501 1502 1504 1504 1504 1504 1504 1504 1504 1503 1503 1502 1501 1499 1498 1497 1495 1493 1490 1487 1485 1483 1481 1479 1477 1474 1471 1469 1468 1466 1465 1463 1462 1459 1459
1480 1482 1484 1485 1486 1489 1492 1496 1499 1500 1500 1501 1502 1503 1502 1502 1501 1501 1501 1501 1500 1498 1496 1494 1491 1489 1486 1482 1479 1477 1475 1474 1471 1469 1467 1466 1464 1462 1461 1459 1457 1455 1454
1476 1478 1480 1481 1483 1487 1490 1492 1494 1496 1498 1499 1501 1501 1500 1500 1501 1501 1501 1500 1498 1496 1493 1491 1488 1484 1481 1477 1474 1473 1471 1469 1466 1464 1463 1461 1460 1458 1456 1453 1451 1449 1447
1473 1474 1476 1477 1481 1483 1486 1489 1492 1494 1496 1498 1499 1500 1500 1500 1500 1500 1499 1498 1495 1493 1490 1487 1484 1482 1478 1474 1471 1469 1466 1465 1462 1461 1459 1457 1455 1453 1450 1447 1445 1443 1441
1471 1472 1474 1476 1478 1481 1484 1487 1490 1492 1495 1497 1498 1499 1499 1500 1499 1498 1497 1495 1493 1490 1487 1484 1481 1478 1475 1471 1466 1462 1461 1460 1457 1457 1453 1452 1450 1449 1447 1444 1441 1438 1435
1471 1472 1474 1476 1478 1481 1484 1486 1489 1492 1495 1497 1498 1499 1499 1498 1497 1496 1495 1493 1490 1488 1485 1482 1479 1476 1474 1470 1466 1460 1456 1454 1453 1452 1449 1448 1446 1444 1440 1437 1434 1431 1428
1471 1472 1473 1475 1477 1480 1483 1485 1488 1491 1494 1496 1497 1498 1497 1496 1495 1494 1493 1491 1488 1485 1483 1480 1477 1474 1471 1470 1468 1467 1462 1458 1449 1447 1444 1443 1441 1437 1434 1430 1428 1425 1422
1470 1472 1475 1477 1478 1480 1482 1485 1487 1490 1492 1494 1496 1496 1496 1495 1493 1492 1490 1488 1485 1483 1480 1478 1475 1473 1471 1468 1466 1466 1466 1463 1456 1440 1440 1436 1434 1430 1427 1424 1421 1419 1416
1468 1471 1474 1476 1478 1480 1483 1486 1487 1490 1492 1493 1493 1494 1493 1493 1491 1489 1487 1485 1482 1480 1478 1476 1474 1471 1469 1467 1465 1461 1459 1455 1452 1446 1430 1429 1428 1425 1421 1418 1415 1411 1407
1467 1470 1473 1475 1477 1480 1483 1485 1488 1489 1490 1491 1491 1491 1491 1490 1489 1487 1485 1483 1480 1477 1475 1473 1471 1469 1467 1464 1462 1459 1456 1452 1446 1442 1432 1423 1419 1416 1414 1412 1408 1404 1401
Wind_Speed
5 4 7 9 12 9 6 5 3 3 6 7 5 3 7 4 2 3 5 2 8 8 6 5 5 3 4 4 2 2 6 10 13 12 11 8 4 5 5 5 5 4 4
2 6 7 12 14 11 9 5 3 4 6 6 2 7 8 5 2 2 6 7 8 3 7 5 3 3 6 4 2 4 9 13 12 11 4 1 1 3 4 7 4 9 4
6 7 9 11 11 9 9 9 5 5 4 3 4 6 5 4 1 4 3 1 4 7 8 1 7 2 5 5 7 6 7 12 13 7 2 3 3 5 5 8 8 10 9
5 7 8 11 12 8 6 7 3 2 2 2 4 4 4 4 2 2 3 2 4 8 8 5 3 6 9 10 11 9 9 10 10 7 2 6 5 7 5 10 11 9 11
4 8 7 9 10 10 9 5 1 2 2 1 4 9 4 4 3 1 1 7 11 10 9 9 4 4 4 5 6 9 10 13 16 11 7 8 7 10 11 13 13 12 12
3 4 3 5 9 9 8 4 2 2 3 2 5 9 8 5 3 2 1 3 11 12 9 10 8 8 7 6 6 7 7 9 11 12 9 10 11 8 13 18 18 13 14
5 4 3 6 8 9 7 5 2 1 3 4 4 7 6 6 4 5 4 6 11 10 8 8 9 8 8 8 9 9 11 11 11 11 12 10 12 14 13 15 17 17 15
6 5 6 8 8 9 7 5 3 3 1 3 4 5 4 6 3 2 3 6 9 7 8 9 9 9 9 9 10 11 11 12 13 13 13 12 10 12 14 15 16 17 18
10 8 7 8 8 8 5 4 3 3 1 1 2 2 2 5 4 2 3 4 6 8 9 9 9 9 10 10 11 12 13 13 15 16 14 12 10 11 12 15 17 17 18
12 10 7 7 7 5 4 4 2 2 3 2 2 2 2 4 2 1 2 3 5 8 9 10 10 11 12 13 13 12 13 15 16 16 15 15 16 16 17 16 19 20 20
14 12 9 7 7 5 3 3 0 2 2 1 1 4 6 5 2 2 4 6 8 9 9 11 10 12 13 15 16 17 18 20 20 20 21 22 22 23 22 23 24 25 26
10 14 14 11 7 5 5 3 2 2 0 4 4 3 4 2 2 4 5 5 7 9 10 13 14 15 16 18 18 19 20 21 22 23 24 23 24 24 24 25 27 27 27
9 11 17 15 11 9 9 7 6 2 2 4 2 0 1 3 1 3 4 7 10 12 14 14 13 15 16 16 18 19 19 21 21 22 24 24 26 26 26 28 28 29 31
14 12 11 16 18 15 14 9 5 2 2 2 1 3 4 2 1 3 3 5 6 9 12 13 14 15 14 14 15 14 16 17 20 19 20 20 21 23 25 27 27 27 28
11 14 14 14 19 18 14 9 10 7 5 8 6 6 7 5 3 4 4 4 7 10 12 12 12 12 11 13 12 13 14 15 17 19 20 20 21 22 23 24 26 25 26
14 17 18 17 19 19 17 12 14 11 8 8 7 6 5 6 5 3 3 7 8 9 11 11 12 11 12 14 15 15 16 16 17 20 22 19 21 18 20 22 23 24 25
18 20 20 18 16 16 18 16 13 15 11 9 10 7 5 5 5 5 6 7 7 8 7 8 11 13 15 16 17 17 17 18 19 19 19 16 14 14 15 14 13 14 16
20 21 19 19 19 17 15 17 14 13 14 12 11 8 7 6 9 7 5 4 4 6 9 12 16 18 19 20 20 19 19 15 13 10 12 13 14 18 20 21 19 16 17
22 20 20 23 22 20 18 20 19 17 15 12 11 9 7 7 5 2 1 4 7 11 13 16 17 18 19 19 19 19 17 11 10 15 17 18 19 21 22 21 21 20 21
16 14 16 22 26 25 24 23 19 18 16 14 11 8 8 6 4 3 6 9 12 14 16 17 17 17 18 19 20 20 18 10 18 10 21 17 19 19 18 19 21 22 24
13 17 19 27 28 27 27 27 23 19 16 12 10 10 8 5 4 7 10 13 16 17 17 18 18 18 19 23 26 28 22 22 6 25 16 26 17 17 20 23 28 31 31
18 20 24 27 27 25 22 20 18 17 15 13 11 9 6 4 7 11 15 17 19 18 17 17 18 20 20 22 24 23 15 21 12 28 21 20 16 24 29 29 30 29 33
22 23 24 24 24 22 18 18 19 19 17 13 10 6 4 5 9 13 16 18 20 19 18 17 18 20 22 21 20 16 10 10 41 12 33 10 32 26 36 33 33 32 26
25 23 24 25 22 16 14 16 17 16 15 12 7 4 2 5 9 13 16 19 20 19 18 17 17 18 20 23 23 22 19 23 28 23 17 43 25 38 37 37 37 29 32
25 25 25 24 23 21 19 17 17 16 12 10 6 3 1 5 9 14 18 20 20 19 18 18 18 18 20 21 22 26 27 30 31 31 35 29 37 37 41 35 36 39 34
27 26 24 23 22 20 18 17 16 13 11 9 6 2 3 8 11 14 17 20 20 18 18 18 19 20 21 22 24 24 25 29 32 34 40 41 38 36 31 33 34 31 29
Wind_Direction
193 168 163 153 157 161 155 158 230 305 331 338 333 115 143 154 145 312 298 311 309 342 79 92 116 134 158 180 227 258 283 266 276 293 290 299 265 264 265 274 216 225 273
186 154 156 156 160 160 155 179 224 285 325 327 335 157 135 109 106 285 290 294 296 354 31 156 160 202 196 196 234 273 284 287 296 316 308 327 221 278 309 317 286 206 209
129 142 146 154 149 157 174 199 233 290 307 346 71 126 157 173 218 2 344 42 315 8 8 303 233 262 225 232 243 251 273 293 302 320 352 165 203 266 280 293 296 247 236
124 131 142 145 151 162 174 187 238 286 295 332 133 129 136 140 132 65 47 309 5 4 17 10 284 271 266 265 260 267 258 288 318 315 295 232 251 275 275 282 284 263 235
136 138 122 153 155 166 184 196 212 19 16 340 173 137 135 152 164 157 342 335 3 347 354 16 13 355 341 307 298 293 281 289 309 318 293 264 271 252 272 268 271 262 243
163 128 136 173 169 161 184 195 202 15 22 79 152 156 166 184 185 229 291 294 346 352 355 18 18 7 353 342 335 333 324 318 321 315 305 280 283 265 257 273 284 273 263
168 177 201 200 185 184 192 193 197 251 55 70 146 174 174 176 179 208 228 271 332 349 23 19 17 9 0 354 355 346 347 341 338 333 320 303 276 284 285 273 280 287 278
213 197 216 199 192 195 194 196 188 188 89 72 83 198 203 201 199 254 249 304 327 348 359 359 0 357 352 345 344 342 342 338 337 336 331 324 303 284 285 283 290 288 281
233 228 204 196 188 194 186 180 166 199 207 137 60 48 203 203 211 253 288 319 336 345 343 343 345 343 342 339 337 335 332 331 333 329 325 325 320 308 302 285 289 294 288
231 234 205 196 191 182 181 159 170 257 271 284 41 59 98 148 147 129 356 5 336 332 337 338 338 341 341 340 339 337 329 325 331 330 327 325 319 314 308 294 286 294 297
220 235 226 209 185 180 176 194 250 286 258 256 132 91 112 113 104 53 16 353 347 345 349 347 346 349 350 351 348 345 339 336 331 327 323 324 324 319 312 302 301 297 298
227 227 227 228 213 205 215 211 285 207 261 156 120 125 115 100 20 343 346 343 349 350 352 353 349 353 351 347 342 342 336 332 326 327 325 326 324 318 313 311 308 309 307
253 225 217 218 221 225 225 235 229 180 151 184 184 37 62 24 263 321 345 348 352 351 351 345 343 338 330 327 324 324 329 321 320 322 319 316 310 311 310 309 307 308 309
226 232 226 209 209 217 223 219 199 229 225 179 291 248 241 217 279 325 333 338 329 321 324 322 318 318 321 322 317 310 305 306 302 304 309 311 310 309 302 301 300 302 301
229 229 228 217 209 211 219 208 190 209 211 200 195 209 222 221 224 244 264 291 303 302 300 296 295 298 299 301 307 310 310 312 315 306 303 302 303 300 303 302 300 301 303
221 226 220 221 214 207 209 205 187 182 187 178 181 193 207 233 241 238 258 278 282 286 279 283 299 306 317 316 315 309 302 299 303 305 311 306 306 306 314 311 303 298 298
209 205 206 211 211 207 203 195 189 193 174 179 185 194 169 191 181 214 241 258 267 268 293 305 310 315 314 310 308 307 304 300 301 305 302 311 319 319 313 320 326 325 323
202 205 213 214 202 200 193 186 175 186 176 184 184 181 189 205 185 192 235 256 291 310 319 318 318 320 318 318 319 319 322 325 317 320 324 320 316 314 313 321 321 317 312
227 223 215 204 194 182 179 173 182 177 168 170 176 189 204 188 198 226 73 355 331 327 325 324 327 329 331 331 334 335 339 336 320 317 311 310 310 313 313 311 308 308 309
209 201 181 172 177 180 176 172 173 175 168 175 191 187 153 142 111 32 1 344 337 336 331 332 337 342 344 339 338 338 345 347 326 331 329 326 326 319 315 314 309 301 295
182 171 161 161 170 180 178 176 178 181 185 188 160 135 125 99 48 10 358 353 350 346 345 344 345 347 350 345 343 343 346 342 318 334 336 340 326 326 315 305 300 301 303
157 157 159 165 175 183 186 184 189 183 164 147 136 129 105 63 25 13 6 1 357 352 346 345 347 349 351 355 353 352 343 349 316 338 330 333 323 316 318 323 324 322 319
159 160 159 161 170 173 174 171 162 155 147 144 138 127 97 40 18 10 6 0 354 349 345 345 345 346 345 345 351 359 342 323 326 323 332 320 318 323 323 325 326 319 315
163 164 161 165 168 170 170 160 153 151 148 143 140 125 76 22 2 0 357 355 351 345 340 341 340 340 337 337 337 339 326 317 321 316 308 321 324 319 324 321 321 316 304
160 164 163 162 159 156 156 156 152 150 150 146 150 150 35 4 358 354 351 348 342 338 334 331 330 332 335 333 332 327 323 321 321 313 309 310 315 315 318 316 313 314 314
162 161 160 160 155 158 160 160 163 163 159 164 167 191 348 352 350 346 344 341 337 333 330 330 330 329 328 326 325 321 318 317 317 314 310 309 308 308 308 305 308 307 313